Time,TemperatureF,DewpointF,PressureIn,WindDirection,WindDirectionDegrees,WindSpeedMPH,WindSpeedGustMPH,Humidity,HourlyPrecipIn,Conditions,Clouds,dailyrainin,SoftwareType,DateUTC
2013-06-15 00:00:00,69.5,62.7,30.01,SE,146,0.0,0.0,79,0.00,,---,0.00,VWS V14.01,2013-06-15 04:00:00,
2013-06-15 00:01:00,69.4,62.6,30.01,SE,146,0.0,0.0,79,0.00,,---,0.00,VWS V14.01,2013-06-15 04:01:00,
2013-06-15 00:02:00,69.4,62.6,30.01,SE,146,0.0,0.0,79,0.00,,---,0.00,VWS V14.01,2013-06-15 04:02:00,
2013-06-15 00:07:00,69.5,62.7,30.01,SE,146,0.0,0.0,79,0.00,,---,0.00,VWS V14.01,2013-06-15 04:07:00,
2013-06-15 00:12:00,69.5,62.7,30.01,SE,146,0.0,0.0,79,0.00,,---,0.00,VWS V14.01,2013-06-15 04:12:00,
2013-06-15 00:17:00,69.4,62.6,30.02,SE,146,0.0,0.0,79,0.00,,---,0.00,VWS V14.01,2013-06-15 04:17:00,
2013-06-15 00:22:00,69.2,62.4,30.02,SE,146,0.0,0.0,79,0.00,,---,0.00,VWS V14.01,2013-06-15 04:22:00,
2013-06-15 00:27:00,69.0,62.6,30.02,SE,146,0.0,0.0,80,0.00,,---,0.00,VWS V14.01,2013-06-15 04:27:00,
2013-06-15 00:30:00,68.9,62.8,30.02,SE,146,0.0,0.0,81,0.00,,---,0.00,VWS V14.01,2013-06-15 04:30:00,
2013-06-15 00:32:00,68.8,62.7,30.02,SE,146,0.0,0.0,81,0.00,,---,0.00,VWS V14.01,2013-06-15 04:32:00,
2013-06-15 00:37:00,68.6,62.5,30.02,SE,146,0.0,0.0,81,0.00,,---,0.00,VWS V14.01,2013-06-15 04:37:00,
2013-06-15 00:42:00,68.5,62.5,30.03,SE,146,0.0,0.0,81,0.00,,---,0.00,VWS V14.01,2013-06-15 04:42:00,
2013-06-15 00:47:00,68.3,62.6,30.03,SE,146,0.0,0.0,82,0.00,,---,0.00,VWS V14.01,2013-06-15 04:47:00,
2013-06-15 00:52:00,68.1,62.8,30.03,SE,146,0.0,0.0,83,0.00,,---,0.00,VWS V14.01,2013-06-15 04:52:00,
2013-06-15 00:57:00,67.9,62.5,30.03,SE,146,0.0,0.0,83,0.00,,---,0.00,VWS V14.01,2013-06-15 04:57:00,
2013-06-15 01:00:00,67.8,62.5,30.03,SE,146,0.0,0.0,83,0.00,,---,0.00,VWS V14.01,2013-06-15 05:00:00,
2013-06-15 01:02:00,67.7,62.4,30.03,SE,146,0.0,0.0,83,0.00,,---,0.00,VWS V14.01,2013-06-15 05:02:00,
2013-06-15 01:07:00,67.5,62.5,30.03,SE,146,0.0,0.0,84,0.00,,---,0.00,VWS V14.01,2013-06-15 05:07:00,
2013-06-15 01:12:00,67.4,62.4,30.03,SE,146,0.0,0.0,84,0.00,,---,0.00,VWS V14.01,2013-06-15 05:12:00,
2013-06-15 01:17:00,67.2,62.2,30.04,SE,146,0.0,0.0,84,0.00,,---,0.00,VWS V14.01,2013-06-15 05:17:00,
2013-06-15 01:22:00,67.0,62.0,30.04,SE,146,0.0,0.0,84,0.00,,---,0.00,VWS V14.01,2013-06-15 05:22:00,
2013-06-15 01:27:00,66.8,62.2,30.04,SE,146,0.0,0.0,85,0.00,,---,0.00,VWS V14.01,2013-06-15 05:27:00,
2013-06-15 01:30:00,66.8,62.2,30.04,SE,146,0.0,0.0,85,0.00,,---,0.00,VWS V14.01,2013-06-15 05:30:00,
2013-06-15 01:32:00,66.7,62.0,30.04,SE,146,0.0,0.0,85,0.00,,---,0.00,VWS V14.01,2013-06-15 05:32:00,
2013-06-15 01:37:00,66.7,62.0,30.04,SE,146,0.0,0.0,85,0.00,,---,0.00,VWS V14.01,2013-06-15 05:37:00,
2013-06-15 01:42:00,66.7,62.4,30.04,SE,146,0.0,0.0,86,0.00,,---,0.00,VWS V14.01,2013-06-15 05:42:00,
2013-06-15 01:47:00,66.8,62.5,30.04,SE,146,0.0,0.0,86,0.00,,---,0.00,VWS V14.01,2013-06-15 05:47:00,
2013-06-15 01:52:00,66.9,62.2,30.04,SE,146,0.0,0.0,85,0.00,,---,0.00,VWS V14.01,2013-06-15 05:52:00,
2013-06-15 01:57:00,66.8,62.5,30.05,SE,146,0.0,0.0,86,0.00,,---,0.00,VWS V14.01,2013-06-15 05:57:00,
2013-06-15 02:00:00,66.8,62.5,30.04,SE,146,0.0,0.0,86,0.00,,---,0.00,VWS V14.01,2013-06-15 06:00:00,
2013-06-15 02:02:00,66.7,62.4,30.04,SE,146,0.0,0.0,86,0.00,,---,0.00,VWS V14.01,2013-06-15 06:02:00,
2013-06-15 02:07:00,66.6,62.3,30.05,SE,146,0.0,0.0,86,0.00,,---,0.00,VWS V14.01,2013-06-15 06:07:00,
2013-06-15 02:12:00,66.4,62.1,30.05,SE,146,0.0,0.0,86,0.00,,---,0.00,VWS V14.01,2013-06-15 06:12:00,
2013-06-15 02:17:00,66.3,62.3,30.05,SE,146,0.0,0.0,87,0.00,,---,0.00,VWS V14.01,2013-06-15 06:17:00,
2013-06-15 02:22:00,66.2,62.2,30.05,SE,146,0.0,0.0,87,0.00,,---,0.00,VWS V14.01,2013-06-15 06:22:00,
2013-06-15 02:27:00,66.2,62.2,30.05,SE,146,0.0,0.0,87,0.00,,---,0.00,VWS V14.01,2013-06-15 06:27:00,
2013-06-15 02:30:00,66.2,62.2,30.05,SE,146,0.0,0.0,87,0.00,,---,0.00,VWS V14.01,2013-06-15 06:30:00,
2013-06-15 02:32:00,66.2,62.2,30.05,SE,146,0.0,0.0,87,0.00,,---,0.00,VWS V14.01,2013-06-15 06:32:00,
2013-06-15 02:37:00,66.2,62.2,30.05,SE,146,0.0,1.0,87,0.00,,---,0.00,VWS V14.01,2013-06-15 06:37:00,
2013-06-15 02:42:00,66.2,62.2,30.05,SE,146,0.0,1.0,87,0.00,,---,0.00,VWS V14.01,2013-06-15 06:42:00,
2013-06-15 02:47:00,66.2,62.2,30.04,SE,146,0.0,1.0,87,0.00,,---,0.00,VWS V14.01,2013-06-15 06:47:00,
2013-06-15 02:52:00,66.1,62.1,30.04,SE,146,0.0,1.0,87,0.00,,---,0.00,VWS V14.01,2013-06-15 06:52:00,
2013-06-15 02:57:00,66.0,62.0,30.04,SE,146,0.0,1.0,87,0.00,,---,0.00,VWS V14.01,2013-06-15 06:57:00,
2013-06-15 03:00:00,65.9,61.9,30.04,SE,146,0.0,1.0,87,0.00,,---,0.00,VWS V14.01,2013-06-15 07:00:00,
2013-06-15 03:02:00,65.9,61.9,30.04,SE,146,0.0,0.0,87,0.00,,---,0.00,VWS V14.01,2013-06-15 07:02:00,
2013-06-15 03:07:00,65.9,61.9,30.04,SE,146,0.0,0.0,87,0.00,,---,0.00,VWS V14.01,2013-06-15 07:07:00,
2013-06-15 03:12:00,65.9,61.6,30.04,SE,146,0.0,0.0,86,0.00,,---,0.00,VWS V14.01,2013-06-15 07:12:00,
2013-06-15 03:17:00,65.9,61.6,30.04,SE,146,0.0,0.0,86,0.00,,---,0.00,VWS V14.01,2013-06-15 07:17:00,
2013-06-15 03:22:00,66.0,61.4,30.04,SE,146,0.0,0.0,85,0.00,,---,0.00,VWS V14.01,2013-06-15 07:22:00,
2013-06-15 03:27:00,65.9,60.9,30.04,SE,146,0.0,0.0,84,0.00,,---,0.00,VWS V14.01,2013-06-15 07:27:00,
2013-06-15 03:30:00,66.0,61.0,30.04,SE,146,0.0,0.0,84,0.00,,---,0.00,VWS V14.01,2013-06-15 07:30:00,
2013-06-15 03:32:00,66.0,61.0,30.04,SE,146,0.0,0.0,84,0.00,,---,0.00,VWS V14.01,2013-06-15 07:32:00,
2013-06-15 03:37:00,66.1,61.1,30.04,SE,146,0.0,0.0,84,0.00,,---,0.00,VWS V14.01,2013-06-15 07:37:00,
2013-06-15 03:42:00,66.1,60.8,30.04,SE,146,0.0,0.0,83,0.00,,---,0.00,VWS V14.01,2013-06-15 07:42:00,
2013-06-15 03:47:00,66.2,60.9,30.04,SE,146,0.0,0.0,83,0.00,,---,0.00,VWS V14.01,2013-06-15 07:47:00,
2013-06-15 03:52:00,66.0,60.7,30.04,SE,146,0.0,0.0,83,0.00,,---,0.00,VWS V14.01,2013-06-15 07:52:00,
2013-06-15 03:57:00,65.9,60.6,30.04,SE,146,0.0,0.0,83,0.00,,---,0.00,VWS V14.01,2013-06-15 07:57:00,
2013-06-15 04:00:00,65.9,60.6,30.04,SE,146,0.0,0.0,83,0.00,,---,0.00,VWS V14.01,2013-06-15 08:00:00,
2013-06-15 04:02:00,65.8,60.5,30.04,SE,146,0.0,0.0,83,0.00,,---,0.00,VWS V14.01,2013-06-15 08:02:00,
2013-06-15 04:07:00,65.7,60.4,30.04,SE,146,0.0,0.0,83,0.00,,---,0.00,VWS V14.01,2013-06-15 08:07:00,
2013-06-15 04:12:00,65.6,60.6,30.04,SE,146,0.0,0.0,84,0.00,,---,0.00,VWS V14.01,2013-06-15 08:12:00,
2013-06-15 04:17:00,65.4,60.5,30.04,SE,146,0.0,0.0,84,0.00,,---,0.00,VWS V14.01,2013-06-15 08:17:00,
2013-06-15 04:22:00,65.3,60.3,30.04,SE,146,0.0,0.0,84,0.00,,---,0.00,VWS V14.01,2013-06-15 08:22:00,
2013-06-15 04:27:00,65.1,60.2,30.04,SE,146,0.0,0.0,84,0.00,,---,0.00,VWS V14.01,2013-06-15 08:27:00,
2013-06-15 04:30:00,65.0,60.0,30.04,SE,146,0.0,0.0,84,0.00,,---,0.00,VWS V14.01,2013-06-15 08:30:00,
2013-06-15 04:32:00,64.9,60.3,30.04,SE,146,0.0,0.0,85,0.00,,---,0.00,VWS V14.01,2013-06-15 08:32:00,
2013-06-15 04:37:00,64.8,60.2,30.04,SE,146,0.0,0.0,85,0.00,,---,0.00,VWS V14.01,2013-06-15 08:37:00,
2013-06-15 04:42:00,64.7,60.1,30.04,SE,146,0.0,0.0,85,0.00,,---,0.00,VWS V14.01,2013-06-15 08:42:00,
2013-06-15 04:47:00,64.6,60.0,30.04,SE,146,0.0,0.0,85,0.00,,---,0.00,VWS V14.01,2013-06-15 08:47:00,
2013-06-15 04:52:00,64.5,60.2,30.04,SE,146,0.0,0.0,86,0.00,,---,0.00,VWS V14.01,2013-06-15 08:52:00,
2013-06-15 04:57:00,64.4,60.1,30.04,SE,146,0.0,0.0,86,0.00,,---,0.00,VWS V14.01,2013-06-15 08:57:00,
2013-06-15 05:00:00,64.3,60.0,30.04,SE,146,0.0,0.0,86,0.00,,---,0.00,VWS V14.01,2013-06-15 09:00:00,
2013-06-15 05:02:00,64.2,60.3,30.04,SE,146,0.0,0.0,87,0.00,,---,0.00,VWS V14.01,2013-06-15 09:02:00,
2013-06-15 05:07:00,64.1,60.2,30.04,SE,146,0.0,0.0,87,0.00,,---,0.00,VWS V14.01,2013-06-15 09:07:00,
2013-06-15 05:12:00,63.9,60.0,30.04,SE,146,0.0,0.0,87,0.00,,---,0.00,VWS V14.01,2013-06-15 09:12:00,
2013-06-15 05:17:00,63.8,59.9,30.04,SE,146,0.0,0.0,87,0.00,,---,0.00,VWS V14.01,2013-06-15 09:17:00,
2013-06-15 05:22:00,63.7,59.8,30.04,SE,146,0.0,0.0,87,0.00,,---,0.00,VWS V14.01,2013-06-15 09:22:00,
2013-06-15 05:27:00,63.6,59.7,30.04,SE,146,0.0,0.0,87,0.00,,---,0.00,VWS V14.01,2013-06-15 09:27:00,
2013-06-15 05:30:00,63.6,59.7,30.05,SE,146,0.0,0.0,87,0.00,,---,0.00,VWS V14.01,2013-06-15 09:30:00,
2013-06-15 05:32:00,63.6,59.7,30.05,SE,146,0.0,0.0,87,0.00,,---,0.00,VWS V14.01,2013-06-15 09:32:00,
2013-06-15 05:37:00,63.6,59.7,30.05,SE,146,0.0,0.0,87,0.00,,---,0.00,VWS V14.01,2013-06-15 09:37:00,
2013-06-15 05:42:00,63.5,59.6,30.05,SE,146,0.0,0.0,87,0.00,,---,0.00,VWS V14.01,2013-06-15 09:42:00,
2013-06-15 05:47:00,63.5,59.6,30.05,SE,146,0.0,0.0,87,0.00,,---,0.00,VWS V14.01,2013-06-15 09:47:00,
2013-06-15 05:52:00,63.5,59.6,30.05,SE,146,0.0,0.0,87,0.00,,---,0.00,VWS V14.01,2013-06-15 09:52:00,
2013-06-15 05:57:00,63.4,59.5,30.05,SE,146,0.0,0.0,87,0.00,,---,0.00,VWS V14.01,2013-06-15 09:57:00,
2013-06-15 06:00:00,63.4,59.5,30.05,SE,146,0.0,0.0,87,0.00,,---,0.00,VWS V14.01,2013-06-15 10:00:00,
2013-06-15 06:02:00,63.4,59.5,30.05,SE,146,0.0,0.0,87,0.00,,---,0.00,VWS V14.01,2013-06-15 10:02:00,
2013-06-15 06:07:00,63.4,59.5,30.05,SE,146,0.0,0.0,87,0.00,,---,0.00,VWS V14.01,2013-06-15 10:07:00,
2013-06-15 06:12:00,63.4,59.2,30.05,SE,146,0.0,0.0,86,0.00,,---,0.00,VWS V14.01,2013-06-15 10:12:00,
2013-06-15 06:17:00,63.3,59.4,30.05,SE,146,0.0,0.0,87,0.00,,---,0.00,VWS V14.01,2013-06-15 10:17:00,
2013-06-15 06:22:00,63.4,59.5,30.06,SE,146,0.0,0.0,87,0.00,,---,0.00,VWS V14.01,2013-06-15 10:22:00,
2013-06-15 06:27:00,63.7,59.8,30.06,SE,146,0.0,0.0,87,0.00,,---,0.00,VWS V14.01,2013-06-15 10:27:00,
2013-06-15 06:30:00,63.7,59.8,30.06,SE,146,0.0,0.0,87,0.00,,---,0.00,VWS V14.01,2013-06-15 10:30:00,
2013-06-15 06:32:00,63.8,59.9,30.06,SE,146,0.0,0.0,87,0.00,,---,0.00,VWS V14.01,2013-06-15 10:32:00,
2013-06-15 06:37:00,64.0,60.1,30.06,SE,146,0.0,0.0,87,0.00,,---,0.00,VWS V14.01,2013-06-15 10:37:00,
2013-06-15 06:42:00,64.0,60.1,30.07,SE,146,0.0,0.0,87,0.00,,---,0.00,VWS V14.01,2013-06-15 10:42:00,
2013-06-15 06:47:00,64.1,60.2,30.07,SE,146,0.0,0.0,87,0.00,,---,0.00,VWS V14.01,2013-06-15 10:47:00,
2013-06-15 06:52:00,64.1,60.2,30.07,SE,146,0.0,0.0,87,0.00,,---,0.00,VWS V14.01,2013-06-15 10:52:00,
2013-06-15 06:57:00,64.1,60.2,30.07,SE,146,0.0,0.0,87,0.00,,---,0.00,VWS V14.01,2013-06-15 10:57:00,
2013-06-15 07:00:00,64.1,60.2,30.07,SE,146,0.0,0.0,87,0.00,,---,0.00,VWS V14.01,2013-06-15 11:00:00,
2013-06-15 07:02:00,64.2,60.6,30.07,SE,146,0.0,0.0,88,0.00,,---,0.00,VWS V14.01,2013-06-15 11:02:00,
2013-06-15 07:07:00,64.4,60.8,30.08,SE,146,0.0,0.0,88,0.00,,---,0.00,VWS V14.01,2013-06-15 11:07:00,
2013-06-15 07:12:00,64.7,61.1,30.08,SE,146,0.0,0.0,88,0.00,,---,0.00,VWS V14.01,2013-06-15 11:12:00,
2013-06-15 07:17:00,65.2,61.2,30.08,SE,146,0.0,1.0,87,0.00,,---,0.00,VWS V14.01,2013-06-15 11:17:00,
2013-06-15 07:22:00,65.7,61.4,30.08,SE,146,0.0,1.0,86,0.00,,---,0.00,VWS V14.01,2013-06-15 11:22:00,
2013-06-15 07:27:00,66.1,61.8,30.08,SE,146,0.0,1.0,86,0.00,,---,0.00,VWS V14.01,2013-06-15 11:27:00,
2013-06-15 07:30:00,66.2,61.9,30.08,SE,146,0.0,1.0,86,0.00,,---,0.00,VWS V14.01,2013-06-15 11:30:00,
2013-06-15 07:32:00,66.5,61.9,30.09,SE,146,0.0,0.0,85,0.00,,---,0.00,VWS V14.01,2013-06-15 11:32:00,
2013-06-15 07:37:00,67.0,62.0,30.09,SE,146,0.0,0.0,84,0.00,,---,0.00,VWS V14.01,2013-06-15 11:37:00,
2013-06-15 07:42:00,67.6,62.3,30.10,SE,146,0.0,0.0,83,0.00,,---,0.00,VWS V14.01,2013-06-15 11:42:00,
2013-06-15 07:47:00,68.1,62.8,30.10,SE,146,0.0,0.0,83,0.00,,---,0.00,VWS V14.01,2013-06-15 11:47:00,
2013-06-15 07:52:00,68.6,62.5,30.10,SE,146,0.0,0.0,81,0.00,,---,0.00,VWS V14.01,2013-06-15 11:52:00,
2013-06-15 07:57:00,69.2,63.1,30.10,SE,146,0.0,0.0,81,0.00,,---,0.00,VWS V14.01,2013-06-15 11:57:00,
2013-06-15 08:00:00,69.3,62.9,30.10,SE,146,0.0,0.0,80,0.00,,---,0.00,VWS V14.01,2013-06-15 12:00:00,
2013-06-15 08:02:00,69.8,62.6,30.10,SE,146,0.0,1.0,78,0.00,,---,0.00,VWS V14.01,2013-06-15 12:02:00,
2013-06-15 08:08:00,70.4,63.9,30.09,SE,146,0.0,1.0,80,0.00,,---,0.00,VWS V14.01,2013-06-15 12:08:00,
2013-06-15 08:13:00,71.0,64.2,30.09,SE,146,0.0,1.0,79,0.00,,---,0.00,VWS V14.01,2013-06-15 12:13:00,
2013-06-15 08:18:00,71.3,63.3,30.09,SE,146,0.0,1.0,76,0.00,,---,0.00,VWS V14.01,2013-06-15 12:18:00,
2013-06-15 08:23:00,71.6,63.6,30.10,SE,146,0.0,1.0,76,0.00,,---,0.00,VWS V14.01,2013-06-15 12:23:00,
2013-06-15 08:28:00,72.5,64.1,30.11,SE,146,0.0,1.0,75,0.00,,---,0.00,VWS V14.01,2013-06-15 12:28:00,
2013-06-15 08:30:00,72.6,64.2,30.11,SE,146,0.0,1.0,75,0.00,,---,0.00,VWS V14.01,2013-06-15 12:30:00,
2013-06-15 08:33:00,73.3,64.5,30.11,NNW,344,0.0,3.0,74,0.00,,---,0.00,VWS V14.01,2013-06-15 12:33:00,
2013-06-15 08:38:00,74.0,64.8,30.11,NNW,343,0.0,3.0,73,0.00,,---,0.00,VWS V14.01,2013-06-15 12:38:00,
2013-06-15 08:43:00,74.6,64.6,30.11,NW,315,0.0,4.0,71,0.00,,---,0.00,VWS V14.01,2013-06-15 12:43:00,
2013-06-15 08:48:00,75.2,64.3,30.11,NW,315,0.0,4.0,69,0.00,,---,0.00,VWS V14.01,2013-06-15 12:48:00,
2013-06-15 08:53:00,75.5,65.0,30.11,WNW,296,0.0,4.0,70,0.00,,---,0.00,VWS V14.01,2013-06-15 12:53:00,
2013-06-15 08:58:00,75.7,64.8,30.10,South,186,0.0,4.0,69,0.00,,---,0.00,VWS V14.01,2013-06-15 12:58:00,
2013-06-15 09:00:00,75.8,64.1,30.11,South,186,0.0,4.0,67,0.00,,---,0.00,VWS V14.01,2013-06-15 13:00:00,
2013-06-15 09:03:00,76.2,64.4,30.11,South,186,0.0,1.0,67,0.00,,---,0.00,VWS V14.01,2013-06-15 13:03:00,
2013-06-15 09:08:00,76.8,65.0,30.12,South,186,0.0,1.0,67,0.00,,---,0.00,VWS V14.01,2013-06-15 13:08:00,
2013-06-15 09:13:00,77.1,63.5,30.12,WNW,288,0.0,4.0,63,0.00,,---,0.00,VWS V14.01,2013-06-15 13:13:00,
2013-06-15 09:18:00,77.2,63.6,30.12,WNW,288,0.0,5.0,63,0.00,,---,0.00,VWS V14.01,2013-06-15 13:18:00,
2013-06-15 09:23:00,77.5,63.9,30.12,WNW,288,0.0,5.0,63,0.00,,---,0.00,VWS V14.01,2013-06-15 13:23:00,
2013-06-15 09:28:00,77.8,63.8,30.12,SW,215,0.0,5.0,62,0.00,,---,0.00,VWS V14.01,2013-06-15 13:28:00,
2013-06-15 09:30:00,77.8,62.8,30.12,WSW,253,3.0,5.0,60,0.00,,---,0.00,VWS V14.01,2013-06-15 13:30:00,
2013-06-15 09:33:00,78.1,64.5,30.12,WNW,299,0.0,5.0,63,0.00,,---,0.00,VWS V14.01,2013-06-15 13:33:00,
2013-06-15 09:38:00,78.7,64.1,30.12,WNW,295,0.0,5.0,61,0.00,,---,0.00,VWS V14.01,2013-06-15 13:38:00,
2013-06-15 09:43:00,79.0,63.5,30.12,WNW,294,0.0,5.0,59,0.00,,---,0.00,VWS V14.01,2013-06-15 13:43:00,
2013-06-15 09:48:00,79.1,64.5,30.13,WNW,291,0.0,5.0,61,0.00,,---,0.00,VWS V14.01,2013-06-15 13:48:00,
2013-06-15 09:53:00,79.4,61.3,30.12,West,263,0.0,6.0,54,0.00,,---,0.00,VWS V14.01,2013-06-15 13:53:00,
2013-06-15 09:58:00,79.4,60.3,30.12,WSW,257,0.0,6.0,52,0.00,,---,0.00,VWS V14.01,2013-06-15 13:58:00,
2013-06-15 10:00:00,79.4,60.3,30.12,WSW,254,0.0,6.0,52,0.00,,---,0.00,VWS V14.01,2013-06-15 14:00:00,
2013-06-15 10:03:00,79.4,60.8,30.12,South,173,0.0,4.0,53,0.00,,---,0.00,VWS V14.01,2013-06-15 14:03:00,
2013-06-15 10:08:00,79.5,59.8,30.12,West,259,0.0,5.0,51,0.00,,---,0.00,VWS V14.01,2013-06-15 14:08:00,
2013-06-15 10:13:00,80.1,61.4,30.12,WSW,249,3.0,5.0,53,0.00,,---,0.00,VWS V14.01,2013-06-15 14:13:00,
2013-06-15 10:18:00,80.3,60.5,30.12,West,264,0.0,5.0,51,0.00,,---,0.00,VWS V14.01,2013-06-15 14:18:00,
2013-06-15 10:23:00,80.1,59.2,30.13,South,182,0.0,6.0,49,0.00,,---,0.00,VWS V14.01,2013-06-15 14:23:00,
2013-06-15 10:28:00,80.3,60.5,30.12,SSE,160,0.0,6.0,51,0.00,,---,0.00,VWS V14.01,2013-06-15 14:28:00,
2013-06-15 10:30:00,80.3,60.5,30.12,SSE,160,0.0,6.0,51,0.00,,---,0.00,VWS V14.01,2013-06-15 14:30:00,
2013-06-15 10:33:00,80.3,60.5,30.13,WSW,246,0.0,7.0,51,0.00,,---,0.00,VWS V14.01,2013-06-15 14:33:00,
2013-06-15 10:38:00,80.1,58.7,30.12,SSE,165,0.0,7.0,48,0.00,,---,0.00,VWS V14.01,2013-06-15 14:38:00,
2013-06-15 10:43:00,80.0,60.3,30.12,SSE,168,0.0,7.0,51,0.00,,---,0.00,VWS V14.01,2013-06-15 14:43:00,
2013-06-15 10:48:00,80.2,59.3,30.13,West,277,0.0,7.0,49,0.00,,---,0.00,VWS V14.01,2013-06-15 14:48:00,
2013-06-15 10:53:00,80.5,59.6,30.13,WSW,252,0.0,7.0,49,0.00,,---,0.00,VWS V14.01,2013-06-15 14:53:00,
2013-06-15 10:58:00,81.0,60.6,30.13,West,265,3.0,7.0,50,0.00,,---,0.00,VWS V14.01,2013-06-15 14:58:00,
2013-06-15 11:00:00,81.1,60.7,30.13,WSW,255,2.0,7.0,50,0.00,,---,0.00,VWS V14.01,2013-06-15 15:00:00,
2013-06-15 11:03:00,81.3,59.8,30.13,West,265,0.0,6.0,48,0.00,,---,0.00,VWS V14.01,2013-06-15 15:03:00,
2013-06-15 11:08:00,81.8,60.2,30.13,SW,235,0.0,6.0,48,0.00,,---,0.00,VWS V14.01,2013-06-15 15:08:00,
2013-06-15 11:13:00,81.6,58.8,30.13,WSW,240,0.0,6.0,46,0.00,,---,0.00,VWS V14.01,2013-06-15 15:13:00,
2013-06-15 11:18:00,81.9,59.7,30.13,West,260,0.0,6.0,47,0.00,,---,0.00,VWS V14.01,2013-06-15 15:18:00,
2013-06-15 11:23:00,82.2,60.6,30.13,WNW,289,0.0,6.0,48,0.00,,---,0.00,VWS V14.01,2013-06-15 15:23:00,
2013-06-15 11:28:00,82.5,58.4,30.13,SSE,163,0.0,6.0,44,0.00,,---,0.00,VWS V14.01,2013-06-15 15:28:00,
2013-06-15 11:30:00,82.4,58.3,30.13,ENE,75,0.0,6.0,44,0.00,,---,0.00,VWS V14.01,2013-06-15 15:30:00,
2013-06-15 11:33:00,82.3,57.6,30.13,ESE,111,1.0,1.0,43,0.00,,---,0.00,VWS V14.01,2013-06-15 15:33:00,
2013-06-15 11:38:00,82.7,58.6,30.13,WNW,303,0.0,1.0,44,0.00,,---,0.00,VWS V14.01,2013-06-15 15:38:00,
2013-06-15 11:43:00,82.7,60.4,30.13,South,173,2.0,5.0,47,0.00,,---,0.00,VWS V14.01,2013-06-15 15:43:00,
2013-06-15 11:48:00,82.1,59.3,30.14,WSW,237,0.0,9.0,46,0.00,,---,0.00,VWS V14.01,2013-06-15 15:48:00,
2013-06-15 11:53:00,82.5,60.8,30.14,WNW,290,5.0,9.0,48,0.00,,---,0.00,VWS V14.01,2013-06-15 15:53:00,
2013-06-15 11:58:00,82.1,59.3,30.14,North,5,0.0,9.0,46,0.00,,---,0.00,VWS V14.01,2013-06-15 15:58:00,
2013-06-15 12:00:00,82.1,59.3,30.14,NE,40,0.0,9.0,46,0.00,,---,0.00,VWS V14.01,2013-06-15 16:00:00,
2013-06-15 12:03:00,82.3,60.7,30.13,SW,225,1.0,7.0,48,0.00,,---,0.00,VWS V14.01,2013-06-15 16:03:00,
2013-06-15 12:08:00,82.7,61.0,30.13,NNW,332,0.0,7.0,48,0.00,,---,0.00,VWS V14.01,2013-06-15 16:08:00,
2013-06-15 12:13:00,82.2,60.6,30.13,WSW,238,0.0,7.0,48,0.00,,---,0.00,VWS V14.01,2013-06-15 16:13:00,
2013-06-15 12:18:00,82.9,61.2,30.13,WSW,258,0.0,7.0,48,0.00,,---,0.00,VWS V14.01,2013-06-15 16:18:00,
2013-06-15 12:23:00,82.8,61.1,30.13,WSW,254,0.0,7.0,48,0.00,,---,0.00,VWS V14.01,2013-06-15 16:23:00,
2013-06-15 12:28:00,82.8,61.7,30.13,West,270,0.0,7.0,49,0.00,,---,0.00,VWS V14.01,2013-06-15 16:28:00,
2013-06-15 12:30:00,82.9,61.8,30.13,West,270,0.0,7.0,49,0.00,,---,0.00,VWS V14.01,2013-06-15 16:30:00,
2013-06-15 12:33:00,82.7,59.8,30.13,WSW,255,0.0,7.0,46,0.00,,---,0.00,VWS V14.01,2013-06-15 16:33:00,
2013-06-15 12:38:00,82.5,60.3,30.13,West,275,0.0,7.0,47,0.00,,---,0.00,VWS V14.01,2013-06-15 16:38:00,
2013-06-15 12:43:00,82.9,60.6,30.12,West,277,0.0,7.0,47,0.00,,---,0.00,VWS V14.01,2013-06-15 16:43:00,
2013-06-15 12:48:00,83.4,60.5,30.12,West,265,1.0,7.0,46,0.00,,---,0.00,VWS V14.01,2013-06-15 16:48:00,
2013-06-15 12:53:00,83.0,59.5,30.12,NNE,20,3.0,8.0,45,0.00,,---,0.00,VWS V14.01,2013-06-15 16:53:00,
2013-06-15 12:58:00,82.6,60.3,30.12,NW,325,0.0,8.0,47,0.00,,---,0.00,VWS V14.01,2013-06-15 16:58:00,
2013-06-15 13:00:00,82.6,60.3,30.12,NW,325,0.0,8.0,47,0.00,,---,0.00,VWS V14.01,2013-06-15 17:00:00,
2013-06-15 13:03:00,82.4,60.2,30.12,WNW,293,0.0,7.0,47,0.00,,---,0.00,VWS V14.01,2013-06-15 17:03:00,
2013-06-15 13:08:00,82.1,60.5,30.11,NW,320,0.0,7.0,48,0.00,,---,0.00,VWS V14.01,2013-06-15 17:08:00,
2013-06-15 13:13:00,82.3,61.2,30.11,NW,320,0.0,7.0,49,0.00,,---,0.00,VWS V14.01,2013-06-15 17:13:00,
2013-06-15 13:18:00,82.7,60.4,30.11,WNW,302,2.0,7.0,47,0.00,,---,0.00,VWS V14.01,2013-06-15 17:18:00,
2013-06-15 13:23:00,83.3,59.8,30.11,NNW,346,0.0,7.0,45,0.00,,---,0.00,VWS V14.01,2013-06-15 17:23:00,
2013-06-15 13:28:00,83.5,60.6,30.10,SW,236,0.0,7.0,46,0.00,,---,0.00,VWS V14.01,2013-06-15 17:28:00,
2013-06-15 13:30:00,83.5,60.6,30.10,West,263,5.0,7.0,46,0.00,,---,0.00,VWS V14.01,2013-06-15 17:30:00,
2013-06-15 13:33:00,82.8,61.1,30.10,South,170,1.0,5.0,48,0.00,,---,0.00,VWS V14.01,2013-06-15 17:33:00,
2013-06-15 13:38:00,82.8,62.3,30.11,South,187,1.0,5.0,50,0.00,,---,0.00,VWS V14.01,2013-06-15 17:38:00,
2013-06-15 13:43:00,82.8,60.5,30.10,South,178,0.0,5.0,47,0.00,,---,0.00,VWS V14.01,2013-06-15 17:43:00,
2013-06-15 13:48:00,83.0,59.5,30.11,West,267,0.0,6.0,45,0.00,,---,0.00,VWS V14.01,2013-06-15 17:48:00,
2013-06-15 13:53:00,82.7,59.2,30.11,WNW,284,0.0,6.0,45,0.00,,---,0.00,VWS V14.01,2013-06-15 17:53:00,
2013-06-15 13:58:00,82.8,59.9,30.11,WNW,284,0.0,6.0,46,0.00,,---,0.00,VWS V14.01,2013-06-15 17:58:00,
2013-06-15 14:00:00,82.8,60.5,30.11,WNW,284,0.0,6.0,47,0.00,,---,0.00,VWS V14.01,2013-06-15 18:00:00,
2013-06-15 14:03:00,83.6,62.4,30.10,SW,236,1.0,10.0,49,0.00,,---,0.00,VWS V14.01,2013-06-15 18:03:00,
2013-06-15 14:08:00,83.5,62.9,30.10,NNW,331,5.0,10.0,50,0.00,,---,0.00,VWS V14.01,2013-06-15 18:08:00,
2013-06-15 14:13:00,83.1,62.0,30.11,West,270,2.0,10.0,49,0.00,,---,0.00,VWS V14.01,2013-06-15 18:13:00,
2013-06-15 14:18:00,83.4,61.1,30.10,North,349,0.0,10.0,47,0.00,,---,0.00,VWS V14.01,2013-06-15 18:18:00,
2013-06-15 14:23:00,83.6,62.4,30.10,West,271,4.0,10.0,49,0.00,,---,0.00,VWS V14.01,2013-06-15 18:23:00,
2013-06-15 14:28:00,83.7,62.5,30.10,North,360,1.0,10.0,49,0.00,,---,0.00,VWS V14.01,2013-06-15 18:28:00,
2013-06-15 14:30:00,83.8,62.6,30.10,NNE,14,4.0,10.0,49,0.00,,---,0.00,VWS V14.01,2013-06-15 18:30:00,
2013-06-15 14:33:00,84.2,62.4,30.10,NW,309,0.0,8.0,48,0.00,,---,0.00,VWS V14.01,2013-06-15 18:33:00,
2013-06-15 14:38:00,84.7,62.9,30.10,West,279,5.0,9.0,48,0.00,,---,0.00,VWS V14.01,2013-06-15 18:38:00,
2013-06-15 14:43:00,84.3,63.1,30.10,West,277,0.0,9.0,49,0.00,,---,0.00,VWS V14.01,2013-06-15 18:43:00,
2013-06-15 14:48:00,84.3,63.7,30.10,West,271,4.0,9.0,50,0.00,,---,0.00,VWS V14.01,2013-06-15 18:48:00,
2013-06-15 14:53:00,84.5,62.1,30.10,West,275,4.0,9.0,47,0.00,,---,0.00,VWS V14.01,2013-06-15 18:53:00,
2013-06-15 14:58:00,83.9,62.1,30.09,NW,309,2.0,9.0,48,0.00,,---,0.00,VWS V14.01,2013-06-15 18:58:00,
2013-06-15 15:00:00,83.9,62.1,30.09,West,281,7.0,9.0,48,0.00,,---,0.00,VWS V14.01,2013-06-15 19:00:00,
2013-06-15 15:03:00,84.3,63.7,30.09,West,265,0.0,7.0,50,0.00,,---,0.00,VWS V14.01,2013-06-15 19:03:00,
2013-06-15 15:08:00,84.1,63.5,30.09,WNW,298,4.0,12.0,50,0.00,,---,0.00,VWS V14.01,2013-06-15 19:08:00,
2013-06-15 15:13:00,83.1,62.5,30.09,NW,316,2.0,12.0,50,0.00,,---,0.00,VWS V14.01,2013-06-15 19:13:00,
2013-06-15 15:18:00,83.4,62.8,30.09,WNW,294,5.0,12.0,50,0.00,,---,0.00,VWS V14.01,2013-06-15 19:18:00,
2013-06-15 15:23:00,82.9,62.4,30.10,West,280,5.0,12.0,50,0.00,,---,0.00,VWS V14.01,2013-06-15 19:23:00,
2013-06-15 15:28:00,82.8,62.8,30.09,NNW,345,5.0,12.0,51,0.00,,---,0.00,VWS V14.01,2013-06-15 19:28:00,
2013-06-15 15:30:00,82.8,62.8,30.09,NW,304,6.0,12.0,51,0.00,,---,0.00,VWS V14.01,2013-06-15 19:30:00,
2013-06-15 15:33:00,82.8,62.8,30.09,WNW,298,3.0,10.0,51,0.00,,---,0.00,VWS V14.01,2013-06-15 19:33:00,
2013-06-15 15:38:00,82.9,62.9,30.10,WNW,300,0.0,10.0,51,0.00,,---,0.00,VWS V14.01,2013-06-15 19:38:00,
2013-06-15 15:44:00,82.2,62.3,30.10,WNW,291,0.0,10.0,51,0.00,,---,0.00,VWS V14.01,2013-06-15 19:44:00,
2013-06-15 15:49:00,82.7,63.3,30.10,WNW,286,4.0,10.0,52,0.00,,---,0.00,VWS V14.01,2013-06-15 19:49:00,
2013-06-15 15:54:00,82.6,61.5,30.10,West,273,4.0,12.0,49,0.00,,---,0.00,VWS V14.01,2013-06-15 19:54:00,
2013-06-15 15:58:00,82.4,61.9,30.10,WNW,298,2.0,12.0,50,0.00,,---,0.00,VWS V14.01,2013-06-15 19:58:00,
2013-06-15 16:00:00,82.5,62.0,30.10,WNW,295,2.0,12.0,50,0.00,,---,0.00,VWS V14.01,2013-06-15 20:00:00,
2013-06-15 16:03:00,82.8,62.8,30.09,West,277,2.0,7.0,51,0.00,,---,0.00,VWS V14.01,2013-06-15 20:03:00,
2013-06-15 16:09:00,82.8,61.1,30.09,WNW,288,4.0,10.0,48,0.00,,---,0.00,VWS V14.01,2013-06-15 20:09:00,
2013-06-15 16:14:00,82.7,61.0,30.09,WNW,289,0.0,10.0,48,0.00,,---,0.00,VWS V14.01,2013-06-15 20:14:00,
2013-06-15 16:19:00,81.7,59.5,30.09,SW,233,3.0,10.0,47,0.00,,---,0.00,VWS V14.01,2013-06-15 20:19:00,
2013-06-15 16:24:00,80.9,59.4,30.09,WNW,302,0.0,10.0,48,0.00,,---,0.00,VWS V14.01,2013-06-15 20:24:00,
2013-06-15 16:29:00,80.9,58.2,30.09,West,281,6.0,10.0,46,0.00,,---,0.00,VWS V14.01,2013-06-15 20:29:00,
2013-06-15 16:30:00,80.9,58.2,30.09,WNW,282,6.0,10.0,46,0.00,,---,0.00,VWS V14.01,2013-06-15 20:30:00,
2013-06-15 16:34:00,80.8,58.1,30.09,West,269,0.0,10.0,46,0.00,,---,0.00,VWS V14.01,2013-06-15 20:34:00,
2013-06-15 16:39:00,81.1,57.8,30.09,WNW,290,4.0,10.0,45,0.00,,---,0.00,VWS V14.01,2013-06-15 20:39:00,
2013-06-15 16:44:00,80.9,58.8,30.09,WNW,300,4.0,10.0,47,0.00,,---,0.00,VWS V14.01,2013-06-15 20:44:00,
2013-06-15 16:49:00,81.5,56.9,30.09,WNW,288,3.0,10.0,43,0.00,,---,0.00,VWS V14.01,2013-06-15 20:49:00,
2013-06-15 16:54:00,81.6,57.0,30.09,WNW,302,2.0,13.0,43,0.00,,---,0.00,VWS V14.01,2013-06-15 20:54:00,
2013-06-15 16:59:00,81.8,55.8,30.10,NW,323,3.0,13.0,41,0.00,,---,0.00,VWS V14.01,2013-06-15 20:59:00,
2013-06-15 17:00:00,81.8,55.8,30.10,NNW,327,4.0,13.0,41,0.00,,---,0.00,VWS V14.01,2013-06-15 21:00:00,
2013-06-15 17:04:00,82.1,56.8,30.10,West,277,6.0,6.0,42,0.00,,---,0.00,VWS V14.01,2013-06-15 21:04:00,
2013-06-15 17:09:00,81.8,56.5,30.09,WSW,256,3.0,9.0,42,0.00,,---,0.00,VWS V14.01,2013-06-15 21:09:00,
2013-06-15 17:14:00,81.8,55.1,30.09,West,269,0.0,10.0,40,0.00,,---,0.00,VWS V14.01,2013-06-15 21:14:00,
2013-06-15 17:19:00,82.0,53.9,30.09,NW,304,4.0,10.0,38,0.00,,---,0.00,VWS V14.01,2013-06-15 21:19:00,
2013-06-15 17:24:00,82.0,55.3,30.09,West,261,4.0,10.0,40,0.00,,---,0.00,VWS V14.01,2013-06-15 21:24:00,
2013-06-15 17:29:00,81.6,55.6,30.09,NW,309,4.0,10.0,41,0.00,,---,0.00,VWS V14.01,2013-06-15 21:29:00,
2013-06-15 17:30:00,81.6,55.6,30.09,NW,309,4.0,10.0,41,0.00,,---,0.00,VWS V14.01,2013-06-15 21:30:00,
2013-06-15 17:34:00,81.4,54.8,30.09,West,273,0.0,10.0,40,0.00,,---,0.00,VWS V14.01,2013-06-15 21:34:00,
2013-06-15 17:39:00,81.7,56.4,30.09,WNW,284,0.0,10.0,42,0.00,,---,0.00,VWS V14.01,2013-06-15 21:39:00,
2013-06-15 17:44:00,81.9,55.9,30.09,West,268,0.0,10.0,41,0.00,,---,0.00,VWS V14.01,2013-06-15 21:44:00,
2013-06-15 17:49:00,81.7,55.7,30.09,WNW,297,4.0,10.0,41,0.00,,---,0.00,VWS V14.01,2013-06-15 21:49:00,
2013-06-15 17:54:00,81.2,56.6,30.09,West,277,3.0,10.0,43,0.00,,---,0.00,VWS V14.01,2013-06-15 21:54:00,
2013-06-15 17:59:00,81.0,55.8,30.09,WNW,290,6.0,6.0,42,0.00,,---,0.00,VWS V14.01,2013-06-15 21:59:00,
2013-06-15 18:00:00,81.0,55.8,30.09,WNW,288,5.0,10.0,42,0.00,,---,0.00,VWS V14.01,2013-06-15 22:00:00,
2013-06-15 18:04:00,80.8,55.6,30.09,West,270,4.0,10.0,42,0.00,,---,0.00,VWS V14.01,2013-06-15 22:04:00,
2013-06-15 18:09:00,80.7,55.5,30.09,NW,306,3.0,10.0,42,0.00,,---,0.00,VWS V14.01,2013-06-15 22:09:00,
2013-06-15 18:14:00,80.7,55.5,30.09,WNW,284,6.0,10.0,42,0.00,,---,0.00,VWS V14.01,2013-06-15 22:14:00,
2013-06-15 18:19:00,80.5,54.7,30.09,West,271,5.0,10.0,41,0.00,,---,0.00,VWS V14.01,2013-06-15 22:19:00,
2013-06-15 18:24:00,80.3,54.5,30.09,NW,323,2.0,10.0,41,0.00,,---,0.00,VWS V14.01,2013-06-15 22:24:00,
2013-06-15 18:29:00,80.3,55.1,30.09,West,271,4.0,4.0,42,0.00,,---,0.00,VWS V14.01,2013-06-15 22:29:00,
2013-06-15 18:30:00,80.3,55.1,30.09,WNW,298,1.0,10.0,42,0.00,,---,0.00,VWS V14.01,2013-06-15 22:30:00,
2013-06-15 18:34:00,80.2,54.4,30.09,SE,126,0.0,8.0,41,0.00,,---,0.00,VWS V14.01,2013-06-15 22:34:00,
2013-06-15 18:39:00,80.2,54.4,30.09,WNW,289,1.0,8.0,41,0.00,,---,0.00,VWS V14.01,2013-06-15 22:39:00,
2013-06-15 18:44:00,79.9,52.8,30.09,West,273,0.0,9.0,39,0.00,,---,0.00,VWS V14.01,2013-06-15 22:44:00,
2013-06-15 18:49:00,79.8,53.4,30.10,NW,307,0.0,9.0,40,0.00,,---,0.00,VWS V14.01,2013-06-15 22:49:00,
2013-06-15 18:54:00,79.5,53.8,30.10,NW,317,0.0,11.0,41,0.00,,---,0.00,VWS V14.01,2013-06-15 22:54:00,
2013-06-15 18:59:00,79.6,55.2,30.10,WNW,289,5.0,8.0,43,0.00,,---,0.00,VWS V14.01,2013-06-15 22:59:00,
2013-06-15 19:00:00,79.6,55.2,30.10,WNW,293,4.0,11.0,43,0.00,,---,0.00,VWS V14.01,2013-06-15 23:00:00,
2013-06-15 19:04:00,79.3,54.9,30.10,NW,325,0.0,8.0,43,0.00,,---,0.00,VWS V14.01,2013-06-15 23:04:00,
2013-06-15 19:09:00,79.2,55.4,30.10,NW,313,0.0,8.0,44,0.00,,---,0.00,VWS V14.01,2013-06-15 23:09:00,
2013-06-15 19:14:00,79.2,55.4,30.10,NNW,344,0.0,8.0,44,0.00,,---,0.00,VWS V14.01,2013-06-15 23:14:00,
2013-06-15 19:19:00,79.2,56.0,30.10,NW,317,0.0,8.0,45,0.00,,---,0.00,VWS V14.01,2013-06-15 23:19:00,
2013-06-15 19:24:00,78.9,55.8,30.10,West,271,0.0,8.0,45,0.00,,---,0.00,VWS V14.01,2013-06-15 23:24:00,
2013-06-15 19:29:00,78.6,56.7,30.10,NW,321,0.0,0.0,47,0.00,,---,0.00,VWS V14.01,2013-06-15 23:29:00,
2013-06-15 19:30:00,78.6,56.7,30.10,NW,321,0.0,8.0,47,0.00,,---,0.00,VWS V14.01,2013-06-15 23:30:00,
2013-06-15 19:34:00,78.2,56.9,30.10,NW,310,0.0,6.0,48,0.00,,---,0.00,VWS V14.01,2013-06-15 23:34:00,
2013-06-15 19:39:00,77.9,57.2,30.10,NW,325,1.0,6.0,49,0.00,,---,0.00,VWS V14.01,2013-06-15 23:39:00,
2013-06-15 19:44:00,77.7,58.2,30.10,NW,313,0.0,6.0,51,0.00,,---,0.00,VWS V14.01,2013-06-15 23:44:00,
2013-06-15 19:49:00,77.3,57.8,30.10,WNW,300,0.0,6.0,51,0.00,,---,0.00,VWS V14.01,2013-06-15 23:49:00,
2013-06-15 19:54:00,77.0,58.0,30.10,WNW,284,1.0,6.0,52,0.00,,---,0.00,VWS V14.01,2013-06-15 23:54:00,
2013-06-15 19:59:00,76.7,58.3,30.10,NNW,341,0.0,0.0,53,0.00,,---,0.00,VWS V14.01,2013-06-15 23:59:00,
2013-06-15 20:00:00,76.8,58.4,30.10,NNW,341,0.0,7.0,53,0.00,,---,0.00,VWS V14.01,2013-06-16 00:00:00,
2013-06-15 20:04:00,76.6,58.2,30.10,WNW,298,0.0,5.0,53,0.00,,---,0.00,VWS V14.01,2013-06-16 00:04:00,
2013-06-15 20:09:00,76.3,59.0,30.10,NW,316,1.0,5.0,55,0.00,,---,0.00,VWS V14.01,2013-06-16 00:09:00,
2013-06-15 20:14:00,76.1,59.3,30.10,WNW,284,0.0,5.0,56,0.00,,---,0.00,VWS V14.01,2013-06-16 00:14:00,
2013-06-15 20:19:00,75.7,59.4,30.10,WNW,284,0.0,5.0,57,0.00,,---,0.00,VWS V14.01,2013-06-16 00:19:00,
2013-06-15 20:24:00,75.3,59.5,30.10,WNW,292,0.0,5.0,58,0.00,,---,0.00,VWS V14.01,2013-06-16 00:24:00,
2013-06-15 20:29:00,75.0,59.7,30.09,NW,321,0.0,0.0,59,0.00,,---,0.00,VWS V14.01,2013-06-16 00:29:00,
2013-06-15 20:30:00,75.0,59.7,30.09,NW,321,0.0,5.0,59,0.00,,---,0.00,VWS V14.01,2013-06-16 00:30:00,
2013-06-15 20:34:00,74.7,59.9,30.10,NW,321,0.0,1.0,60,0.00,,---,0.00,VWS V14.01,2013-06-16 00:34:00,
2013-06-15 20:39:00,74.4,59.6,30.10,NW,321,0.0,1.0,60,0.00,,---,0.00,VWS V14.01,2013-06-16 00:39:00,
2013-06-15 20:44:00,74.2,59.9,30.10,NW,321,0.0,3.0,61,0.00,,---,0.00,VWS V14.01,2013-06-16 00:44:00,
2013-06-15 20:49:00,74.0,60.2,30.10,NW,321,0.0,3.0,62,0.00,,---,0.00,VWS V14.01,2013-06-16 00:49:00,
2013-06-15 20:54:00,73.6,59.8,30.10,NW,321,0.0,3.0,62,0.00,,---,0.00,VWS V14.01,2013-06-16 00:54:00,
2013-06-15 20:59:00,73.3,60.0,30.10,NW,321,1.0,1.0,63,0.00,,---,0.00,VWS V14.01,2013-06-16 00:59:00,
2013-06-15 21:00:00,73.3,60.0,30.10,NW,321,0.0,3.0,63,0.00,,---,0.00,VWS V14.01,2013-06-16 01:00:00,
2013-06-15 21:04:00,73.0,60.1,30.10,NW,321,0.0,1.0,64,0.00,,---,0.00,VWS V14.01,2013-06-16 01:04:00,
2013-06-15 21:09:00,72.7,59.8,30.10,NW,321,0.0,2.0,64,0.00,,---,0.00,VWS V14.01,2013-06-16 01:09:00,
2013-06-15 21:14:00,72.5,60.1,30.10,NW,321,0.0,2.0,65,0.00,,---,0.00,VWS V14.01,2013-06-16 01:14:00,
2013-06-15 21:19:00,72.3,59.9,30.10,NW,321,0.0,2.0,65,0.00,,---,0.00,VWS V14.01,2013-06-16 01:19:00,
2013-06-15 21:24:00,72.3,59.5,30.10,NW,321,0.0,2.0,64,0.00,,---,0.00,VWS V14.01,2013-06-16 01:24:00,
2013-06-15 21:29:00,72.2,59.4,30.10,NW,321,0.0,0.0,64,0.00,,---,0.00,VWS V14.01,2013-06-16 01:29:00,
2013-06-15 21:30:00,72.3,59.5,30.10,NW,321,0.0,2.0,64,0.00,,---,0.00,VWS V14.01,2013-06-16 01:30:00,
2013-06-15 21:34:00,72.1,59.7,30.10,NW,321,0.0,1.0,65,0.00,,---,0.00,VWS V14.01,2013-06-16 01:34:00,
2013-06-15 21:39:00,71.9,59.5,30.10,NW,320,0.0,1.0,65,0.00,,---,0.00,VWS V14.01,2013-06-16 01:39:00,
2013-06-15 21:44:00,71.6,59.7,30.10,NW,321,0.0,1.0,66,0.00,,---,0.00,VWS V14.01,2013-06-16 01:44:00,
2013-06-15 21:49:00,71.4,59.5,30.11,NW,320,0.0,1.0,66,0.00,,---,0.00,VWS V14.01,2013-06-16 01:49:00,
2013-06-15 21:54:00,71.2,59.7,30.11,NW,321,0.0,1.0,67,0.00,,---,0.00,VWS V14.01,2013-06-16 01:54:00,
2013-06-15 21:59:00,71.1,59.6,30.11,NW,321,0.0,0.0,67,0.00,,---,0.00,VWS V14.01,2013-06-16 01:59:00,
2013-06-15 22:00:00,71.1,59.6,30.11,NW,321,0.0,1.0,67,0.00,,---,0.00,VWS V14.01,2013-06-16 02:00:00,
2013-06-15 22:04:00,70.9,59.4,30.11,NW,321,0.0,1.0,67,0.00,,---,0.00,VWS V14.01,2013-06-16 02:04:00,
2013-06-15 22:09:00,70.7,59.6,30.11,NW,321,1.0,1.0,68,0.00,,---,0.00,VWS V14.01,2013-06-16 02:09:00,
2013-06-15 22:14:00,70.5,59.4,30.12,NW,320,0.0,1.0,68,0.00,,---,0.00,VWS V14.01,2013-06-16 02:14:00,
2013-06-15 22:19:00,70.4,59.3,30.12,NW,321,0.0,2.0,68,0.00,,---,0.00,VWS V14.01,2013-06-16 02:19:00,
2013-06-15 22:24:00,70.5,59.8,30.12,NW,321,0.0,2.0,69,0.00,,---,0.00,VWS V14.01,2013-06-16 02:24:00,
2013-06-15 22:29:00,70.4,59.8,30.12,NW,321,0.0,0.0,69,0.00,,---,0.00,VWS V14.01,2013-06-16 02:29:00,
2013-06-15 22:30:00,70.4,59.8,30.12,NW,321,0.0,2.0,69,0.00,,---,0.00,VWS V14.01,2013-06-16 02:30:00,
2013-06-15 22:34:00,70.2,60.0,30.13,NW,321,0.0,1.0,70,0.00,,---,0.00,VWS V14.01,2013-06-16 02:34:00,
2013-06-15 22:39:00,70.0,59.8,30.12,NW,321,0.0,1.0,70,0.00,,---,0.00,VWS V14.01,2013-06-16 02:39:00,
2013-06-15 22:44:00,69.8,60.0,30.13,NW,321,0.0,1.0,71,0.00,,---,0.00,VWS V14.01,2013-06-16 02:44:00,
2013-06-15 22:49:00,69.6,60.2,30.13,NW,321,0.0,1.0,72,0.00,,---,0.00,VWS V14.01,2013-06-16 02:49:00,
2013-06-15 22:54:00,69.5,60.1,30.13,NW,320,0.0,1.0,72,0.00,,---,0.00,VWS V14.01,2013-06-16 02:54:00,
2013-06-15 22:59:00,69.4,60.0,30.13,NW,321,0.0,0.0,72,0.00,,---,0.00,VWS V14.01,2013-06-16 02:59:00,
2013-06-15 23:00:00,69.4,60.0,30.13,NW,321,0.0,1.0,72,0.00,,---,0.00,VWS V14.01,2013-06-16 03:00:00,
2013-06-15 23:04:00,69.4,60.0,30.13,NW,321,0.0,0.0,72,0.00,,---,0.00,VWS V14.01,2013-06-16 03:04:00,
2013-06-15 23:09:00,69.2,60.2,30.13,NW,321,0.0,1.0,73,0.00,,---,0.00,VWS V14.01,2013-06-16 03:09:00,
2013-06-15 23:14:00,69.1,60.5,30.13,NW,321,0.0,1.0,74,0.00,,---,0.00,VWS V14.01,2013-06-16 03:14:00,
2013-06-15 23:19:00,68.9,60.3,30.13,NW,321,0.0,1.0,74,0.00,,---,0.00,VWS V14.01,2013-06-16 03:19:00,
2013-06-15 23:24:00,68.7,60.1,30.13,NW,321,0.0,1.0,74,0.00,,---,0.00,VWS V14.01,2013-06-16 03:24:00,
2013-06-15 23:29:00,68.6,60.4,30.13,NW,321,0.0,0.0,75,0.00,,---,0.00,VWS V14.01,2013-06-16 03:29:00,
2013-06-15 23:30:00,68.6,60.4,30.13,NW,321,0.0,1.0,75,0.00,,---,0.00,VWS V14.01,2013-06-16 03:30:00,
2013-06-15 23:34:00,68.4,60.2,30.13,NW,321,0.0,2.0,75,0.00,,---,0.00,VWS V14.01,2013-06-16 03:34:00,
2013-06-15 23:39:00,68.2,60.3,30.13,NW,321,0.0,2.0,76,0.00,,---,0.00,VWS V14.01,2013-06-16 03:39:00,
2013-06-15 23:44:00,68.1,60.3,30.13,NW,320,1.0,2.0,76,0.00,,---,0.00,VWS V14.01,2013-06-16 03:44:00,
2013-06-15 23:49:00,68.0,60.5,30.13,NW,321,0.0,3.0,77,0.00,,---,0.00,VWS V14.01,2013-06-16 03:49:00,
2013-06-15 23:54:00,68.1,60.6,30.13,NW,321,2.0,3.0,77,0.00,,---,0.00,VWS V14.01,2013-06-16 03:54:00,
2013-06-15 23:59:00,68.1,60.6,30.13,NW,321,2.0,2.0,77,0.00,,---,0.00,VWS V14.01,2013-06-16 03:59:00,